| time (UTC) | temp F | wind direction | speed MPH | gust MPH | rain 1hr in | rain 24hr in | rain mn in | humidity % | barometer mb |
| 20260901070024 | 59 | 185 | 0.0 | 2.0 | 0.00 | 0.03 | 0.00 | 83 | 1006.3 |
| 20260901064513 | 59 | 266 | 0.0 | 0.0 | 0.00 | 0.03 | 0.00 | 80 | 1006.1 |
| 20260901063026 | 59 | 274 | 0.0 | 0.0 | 0.00 | 0.03 | 0.00 | 79 | 1006.0 |
| 20260901061521 | 60 | 279 | 0.0 | 1.0 | 0.00 | 0.03 | 0.00 | 76 | 1006.1 |
| 20260901060015 | 60 | 282 | 1.0 | 3.0 | 0.00 | 0.03 | 0.00 | 78 | 1006.1 |
| 20260901054530 | 59 | 190 | 0.0 | 1.0 | 0.00 | 0.03 | 0.03 | 81 | 1006.5 |
| 20260901053024 | 59 | 190 | 0.0 | 2.0 | 0.00 | 0.03 | 0.03 | 82 | 1006.7 |
| 20260901051520 | 59 | 174 | 0.0 | 2.0 | 0.00 | 0.03 | 0.03 | 83 | 1006.5 |
| 20260901050014 | 59 | 169 | 0.0 | 1.0 | 0.00 | 0.03 | 0.03 | 84 | 1006.0 |
| 20260901044526 | 59 | 185 | 0.0 | 1.0 | 0.00 | 0.04 | 0.03 | 83 | 1006.0 |
| 20260901043024 | 59 | 180 | 0.0 | 1.0 | 0.00 | 0.04 | 0.03 | 82 | 1006.0 |
| 20260901041518 | 59 | 219 | 0.0 | 1.0 | 0.00 | 0.04 | 0.03 | 81 | 1005.9 |
| 20260901034527 | 59 | 69 | 0.0 | 1.0 | 0.00 | 0.04 | 0.03 | 83 | 1006.2 |
| 20260901033035 | 60 | 86 | 1.0 | 3.0 | 0.00 | 0.04 | 0.03 | 81 | 1006.5 |
| 20260901031556 | 60 | 291 | 1.0 | 6.0 | 0.02 | 0.04 | 0.03 | 79 | 1006.6 |
| 20260901030026 | 60 | 265 | 1.0 | 9.0 | 0.03 | 0.04 | 0.03 | 82 | 1006.5 |
| 20260901024528 | 60 | 279 | 2.0 | 12.0 | 0.03 | 0.04 | 0.03 | 82 | 1006.2 |
| 20260901023057 | 60 | 251 | 2.0 | 9.0 | 0.03 | 0.04 | 0.03 | 83 | 1006.5 |
| 20260901021528 | 62 | 353 | 3.0 | 16.0 | 0.01 | 0.02 | 0.01 | 77 | 1006.4 |
| 20260901020023 | 72 | 176 | 6.0 | 15.0 | 0.00 | 0.01 | 0.00 | 50 | 1006.1 |
| 20260901014515 | 74 | 172 | 3.0 | 10.0 | 0.00 | 0.01 | 0.00 | 42 | 1004.4 |
| 20260901013010 | 74 | 202 | 1.0 | 5.0 | 0.00 | 0.01 | 0.00 | 43 | 1003.9 |
| 20260901011527 | 75 | 71 | 3.0 | 10.0 | 0.00 | 0.01 | 0.00 | 43 | 1003.7 |
| 20260901010020 | 76 | 86 | 3.0 | 8.0 | 0.00 | 0.01 | 0.00 | 42 | 1003.5 |
| 20260901004519 | 77 | 73 | 2.0 | 7.0 | 0.00 | 0.01 | 0.00 | 40 | 1003.7 |
| 20260901003031 | 78 | 79 | 1.0 | 6.0 | 0.00 | 0.01 | 0.00 | 38 | 1003.9 |
| 20260901001531 | 78 | 92 | 2.0 | 9.0 | 0.00 | 0.01 | 0.00 | 36 | 1004.1 |
| 20260901000023 | 79 | 40 | 2.0 | 10.0 | 0.00 | 0.01 | 0.00 | 34 | 1004.3 |
| 20260831234602 | 80 | 70 | 4.0 | 9.0 | 0.00 | 0.01 | 0.00 | 34 | 1004.5 |
| 20260831233025 | 80 | 251 | 3.0 | 9.0 | 0.00 | 0.01 | 0.00 | 33 | 1004.5 |
| 20260831231523 | 80 | 180 | 2.0 | 10.0 | 0.00 | 0.01 | 0.00 | 33 | 1004.6 |
| 20260831230019 | 80 | 136 | 3.0 | 8.0 | 0.00 | 0.01 | 0.00 | 32 | 1004.9 |
| 20260831224529 | 79 | 334 | 1.0 | 8.0 | 0.00 | 0.01 | 0.00 | 34 | 1005.0 |
| 20260831223028 | 78 | 194 | 1.0 | 6.0 | 0.00 | 0.01 | 0.00 | 33 | 1005.2 |
| 20260831221525 | 79 | 176 | 2.0 | 6.0 | 0.00 | 0.01 | 0.00 | 33 | 1005.5 |
| 20260831220027 | 82 | 27 | 3.0 | 8.0 | 0.00 | 0.01 | 0.00 | 31 | 1005.7 |
| 20260831214540 | 80 | 44 | 3.0 | 8.0 | 0.00 | 0.02 | 0.00 | 33 | 1005.7 |
| 20260831213036 | 80 | 28 | 2.0 | 6.0 | 0.00 | 0.02 | 0.00 | 33 | 1005.9 |
| 20260831211521 | 82 | 32 | 2.0 | 9.0 | 0.00 | 0.02 | 0.00 | 32 | 1006.2 |
| 20260831210015 | 80 | 131 | 2.0 | 6.0 | 0.00 | 0.02 | 0.00 | 33 | 1006.2 |
| 20260831204511 | 80 | 78 | 0.0 | 4.0 | 0.00 | 0.02 | 0.00 | 35 | 1006.4 |
| 20260831203047 | 81 | 238 | 2.0 | 5.0 | 0.00 | 0.02 | 0.00 | 30 | 1006.6 |
| 20260831201523 | 81 | 44 | 1.0 | 5.0 | 0.00 | 0.02 | 0.00 | 39 | 1006.8 |
| 20260831200025 | 81 | 92 | 3.0 | 9.0 | 0.00 | 0.02 | 0.00 | 34 | 1007.0 |
| 20260831194516 | 79 | 75 | 1.0 | 3.0 | 0.00 | 0.02 | 0.00 | 35 | 1007.3 |
| 20260831193028 | 79 | 46 | 1.0 | 5.0 | 0.00 | 0.02 | 0.00 | 32 | 1007.3 |
| 20260831191527 | 80 | 65 | 2.0 | 4.0 | 0.00 | 0.02 | 0.00 | 32 | 1007.3 |
| 20260831190023 | 80 | 94 | 1.0 | 5.0 | 0.00 | 0.02 | 0.00 | 31 | 1007.7 |
| 20260831184516 | 81 | 38 | 2.0 | 6.0 | 0.00 | 0.02 | 0.00 | 30 | 1007.8 |
| 20260831183058 | 81 | 37 | 1.0 | 5.0 | 0.00 | 0.02 | 0.00 | 36 | 1007.8 |
| 20260831181527 | 80 | 82 | 2.0 | 8.0 | 0.00 | 0.02 | 0.00 | 37 | 1007.9 |
| 20260831180021 | 78 | 92 | 1.0 | 4.0 | 0.00 | 0.02 | 0.00 | 36 | 1008.0 |
| 20260831174559 | 78 | 96 | 1.0 | 5.0 | 0.00 | 0.02 | 0.00 | 36 | 1008.0 |
| 20260831173024 | 78 | 54 | 0.0 | 4.0 | 0.00 | 0.02 | 0.00 | 40 | 1008.1 |
| 20260831171521 | 77 | 46 | 1.0 | 3.0 | 0.00 | 0.02 | 0.00 | 43 | 1008.3 |
| 20260831170026 | 77 | 46 | 1.0 | 3.0 | 0.00 | 0.02 | 0.00 | 43 | 1008.2 |
| 20260831164510 | 79 | 281 | 1.0 | 4.0 | 0.00 | 0.02 | 0.00 | 41 | 1008.4 |
| 20260831163029 | 79 | 32 | 1.0 | 4.0 | 0.00 | 0.02 | 0.00 | 41 | 1008.3 |
| 20260831161523 | 77 | 315 | 0.0 | 3.0 | 0.00 | 0.02 | 0.00 | 40 | 1008.4 |
| 20260831160038 | 75 | 23 | 1.0 | 3.0 | 0.00 | 0.02 | 0.00 | 41 | 1008.3 |
| 20260831154518 | 74 | 61 | 0.0 | 3.0 | 0.00 | 0.02 | 0.00 | 48 | 1008.3 |
| 20260831153056 | 72 | 307 | 0.0 | 2.0 | 0.00 | 0.02 | 0.00 | 47 | 1008.4 |
| 20260831151530 | 72 | 283 | 1.0 | 4.0 | 0.00 | 0.02 | 0.00 | 45 | 1008.2 |
| 20260831150032 | 71 | 290 | 1.0 | 4.0 | 0.00 | 0.02 | 0.00 | 47 | 1008.2 |
| 20260831144518 | 70 | 288 | 0.0 | 2.0 | 0.00 | 0.02 | 0.00 | 51 | 1008.1 |
| 20260831143015 | 68 | 144 | 0.0 | 2.0 | 0.00 | 0.02 | 0.00 | 51 | 1008.1 |
| 20260831141519 | 67 | 157 | 0.0 | 2.0 | 0.00 | 0.02 | 0.00 | 53 | 1007.9 |
| 20260831134519 | 65 | 171 | 0.0 | 3.0 | 0.00 | 0.02 | 0.00 | 54 | 1007.9 |
| 20260831133034 | 64 | 180 | 0.0 | 2.0 | 0.00 | 0.02 | 0.00 | 55 | 1007.5 |
| 20260831131529 | 62 | 180 | 0.0 | 2.0 | 0.00 | 0.02 | 0.00 | 58 | 1007.4 |
| 20260831130026 | 62 | 199 | 0.0 | 3.0 | 0.00 | 0.02 | 0.00 | 58 | 1007.2 |
| 20260831124517 | 61 | 180 | 0.0 | 2.0 | 0.00 | 0.02 | 0.00 | 59 | 1006.9 |
| 20260831123010 | 62 | 176 | 0.0 | 3.0 | 0.00 | 0.02 | 0.00 | 59 | 1006.8 |
| 20260831121534 | 62 | 167 | 1.0 | 4.0 | 0.00 | 0.02 | 0.00 | 59 | 1006.6 |
| 20260831120038 | 62 | 164 | 0.0 | 3.0 | 0.00 | 0.02 | 0.00 | 59 | 1006.6 |
| 20260831114523 | 61 | 216 | 0.0 | 3.0 | 0.00 | 0.02 | 0.00 | 62 | 1006.5 |
| 20260831113013 | 60 | 190 | 0.0 | 2.0 | 0.00 | 0.02 | 0.00 | 63 | 1006.5 |
| 20260831111527 | 60 | 190 | 0.0 | 2.0 | 0.00 | 0.02 | 0.00 | 64 | 1006.2 |
| 20260831110026 | 60 | 180 | 0.0 | 2.0 | 0.00 | 0.02 | 0.00 | 65 | 1006.2 |
| 20260831104534 | 60 | 238 | 0.0 | 2.0 | 0.00 | 0.02 | 0.00 | 64 | 1006.1 |
| 20260831103015 | 61 | 168 | 0.0 | 3.0 | 0.00 | 0.02 | 0.00 | 63 | 1006.0 |
| 20260831101521 | 62 | 163 | 0.0 | 3.0 | 0.00 | 0.02 | 0.00 | 62 | 1006.0 |
| 20260831100028 | 62 | 212 | 0.0 | 2.0 | 0.00 | 0.02 | 0.00 | 61 | 1005.9 |
| 20260831094521 | 62 | 190 | 0.0 | 1.0 | 0.00 | 0.02 | 0.00 | 62 | 1006.0 |
| 20260831093023 | 62 | 161 | 0.0 | 3.0 | 0.00 | 0.02 | 0.00 | 60 | 1006.0 |
| 20260831091513 | 63 | 190 | 0.0 | 2.0 | 0.00 | 0.02 | 0.00 | 60 | 1005.7 |
| 20260831090029 | 62 | 180 | 0.0 | 2.0 | 0.00 | 0.02 | 0.00 | 62 | 1006.0 |
| 20260831084527 | 62 | 166 | 0.0 | 2.0 | 0.00 | 0.02 | 0.00 | 62 | 1005.9 |
| 20260831083017 | 63 | 180 | 0.0 | 2.0 | 0.00 | 0.02 | 0.00 | 61 | 1006.1 |
| 20260831081530 | 62 | 205 | 0.0 | 3.0 | 0.00 | 0.02 | 0.00 | 62 | 1006.0 |
| 20260831080029 | 60 | 162 | 0.0 | 1.0 | 0.00 | 0.02 | 0.00 | 67 | 1006.2 |
| 20260831074522 | 61 | 159 | 0.0 | 1.0 | 0.00 | 0.02 | 0.00 | 66 | 1006.3 |
| 20260831073023 | 61 | 207 | 0.0 | 3.0 | 0.00 | 0.02 | 0.00 | 67 | 1006.5 |
| 20260831071517 | 61 | 190 | 0.0 | 1.0 | 0.00 | 0.02 | 0.00 | 66 | 1006.4 |